Wind_Speed
6 5 6 5 6 8 11 12 14 15 16 17 18 19 20 19 17 14 15 17 14 16 18 18 20 22 20 19 18 19 20 21 19 20 22 24 22 19 15 20 18 24 28
7 4 3 4 6 8 11 14 16 16 17 18 18 20 21 20 18 16 15 15 14 14 16 19 21 19 18 17 19 18 21 21 20 16 16 17 7 4 9 12 14 17 16
4 2 3 5 6 9 13 17 18 18 17 17 17 17 18 18 17 16 15 12 12 14 15 17 18 18 18 18 19 18 18 20 15 9 12 7 3 5 3 2 5 9 9
2 3 4 6 8 11 15 17 18 19 18 17 18 19 19 20 19 19 19 17 14 13 14 15 17 17 16 16 16 16 16 15 18 11 9 12 12 5 4 6 5 6 6
1 2 5 7 10 15 19 19 19 19 17 16 17 18 18 19 20 19 19 17 14 14 13 13 14 16 14 14 14 15 15 11 14 10 8 9 10 12 6 7 11 12 11
4 6 10 14 17 18 19 20 19 16 14 15 17 18 19 19 20 19 20 19 16 13 13 12 12 13 14 14 12 13 13 12 10 8 6 5 2 4 3 1 8 11 9
8 10 14 16 15 16 17 19 20 18 17 17 18 19 20 21 21 20 20 20 18 14 13 12 12 12 12 12 12 13 13 13 10 7 5 6 6 6 2 5 6 8 7
9 12 16 17 16 16 17 18 19 20 20 21 21 21 22 22 22 22 21 21 19 17 15 13 13 13 13 12 12 11 13 14 12 10 7 4 5 7 9 8 8 9 11
10 13 17 18 18 19 21 22 22 22 23 24 26 25 24 23 23 23 23 23 21 20 18 17 16 14 14 14 15 14 13 13 13 13 12 10 9 9 9 11 14 15 12
10 12 14 19 20 21 23 24 26 26 26 27 28 28 26 24 23 23 24 25 23 23 21 20 19 18 17 17 17 17 16 17 16 15 15 14 13 12 12 13 13 15 15
11 11 15 21 25 26 27 27 28 27 28 30 31 30 29 25 25 24 24 26 26 24 23 22 21 21 21 20 20 21 21 21 20 19 18 16 15 14 13 14 15 16 17
10 12 15 21 24 28 27 31 28 25 29 32 31 29 29 29 28 27 25 25 27 26 25 23 23 22 22 23 23 22 22 20 20 18 17 16 16 15 15 15 16 16 17
11 12 17 24 29 29 30 30 30 30 30 29 29 28 27 29 29 29 27 27 27 27 26 25 24 23 23 23 23 22 22 21 20 18 18 16 16 15 15 15 15 15 16
12 13 21 34 32 30 32 32 32 30 29 29 29 30 30 28 27 28 27 28 28 27 27 27 26 26 25 24 23 23 22 22 21 19 18 17 17 16 14 14 14 14 14
13 20 31 35 31 32 32 32 30 27 26 29 28 30 32 27 26 26 26 26 27 27 26 27 29 28 27 25 24 23 23 22 22 20 19 18 17 16 16 15 14 13 13
18 27 32 32 31 31 32 31 28 28 28 28 29 28 27 25 26 27 28 28 27 26 28 29 29 30 29 26 24 24 24 22 22 21 20 19 17 16 16 16 16 16 15
27 30 32 32 31 31 30 29 28 28 26 25 25 25 26 27 28 30 30 29 27 27 27 29 29 30 30 28 26 26 24 23 23 23 21 20 18 17 16 16 15 16 16
28 28 30 29 30 28 25 24 24 24 25 26 27 28 27 27 26 28 28 27 26 26 27 28 28 29 30 29 28 28 26 25 24 24 23 22 20 18 17 17 17 16 15
25 25 24 26 24 22 22 21 22 22 23 24 26 28 30 31 29 28 28 27 26 26 25 26 27 27 28 28 28 29 29 26 25 25 23 23 22 20 20 19 18 17 16
26 22 22 21 19 18 19 19 21 22 24 25 26 28 30 30 31 30 30 29 26 26 25 25 25 26 26 25 26 29 31 30 27 25 26 25 23 21 22 21 18 18 16
23 20 17 18 19 20 20 22 22 22 24 24 25 25 27 30 31 31 29 28 27 27 26 26 25 25 24 25 23 27 32 32 30 28 27 26 24 21 21 24 20 17 16
20 16 16 17 18 20 22 23 23 23 24 25 26 27 28 28 29 31 32 30 28 28 27 27 27 25 24 24 23 26 29 31 31 29 28 26 22 21 21 22 21 18 17
17 15 16 19 21 24 26 26 26 27 28 29 29 29 29 29 28 29 31 33 32 29 28 27 28 27 26 26 23 23 25 27 30 30 27 25 24 22 23 20 20 19 18
16 14 19 24 28 31 31 28 26 28 30 33 33 33 33 34 32 32 30 30 30 33 32 30 30 28 27 26 24 22 26 24 29 28 28 27 25 25 24 21 20 19 17
15 21 26 30 31 31 31 30 28 30 33 34 34 35 35 36 36 34 33 33 30 28 31 31 30 29 31 28 27 27 27 24 28 27 31 30 30 28 27 23 19 16 18
24 25 24 28 30 32 33 34 32 33 35 37 37 37 37 37 37 38 39 33 32 30 27 28 28 30 30 28 30 32 31 27 24 26 34 36 35 31 26 23 23 23 20
Wind_Direction
175 247 255 268 300 318 327 328 333 333 338 342 341 346 350 348 342 334 336 336 335 333 336 334 329 331 333 334 325 318 316 308 303 292 283 289 293 276 276 273 258 252 245
186 245 268 299 325 338 343 344 338 334 333 334 338 342 343 346 347 343 335 332 327 329 334 334 336 341 341 345 336 321 316 305 311 287 290 296 286 306 254 256 278 267 251
204 259 321 339 350 352 351 349 343 337 327 326 330 332 334 338 341 341 342 335 327 322 329 336 343 348 346 345 341 335 325 310 312 285 271 276 200 158 66 186 231 262 228
190 271 304 321 331 337 335 332 332 331 326 321 323 326 329 335 338 340 340 339 330 321 322 335 345 351 355 356 353 347 346 321 310 303 268 263 262 241 174 158 154 157 156
344 341 345 341 334 331 328 325 323 324 323 322 320 318 323 326 329 331 333 337 333 325 321 327 338 347 357 358 354 351 351 351 340 287 277 277 273 239 211 166 180 183 188
12 351 340 332 330 336 338 338 338 339 328 322 321 319 317 318 320 323 324 328 332 333 326 316 322 332 337 346 349 351 359 354 0 2 270 242 177 192 210 221 199 202 218
19 349 333 329 332 338 340 338 338 341 335 329 327 322 316 312 313 316 315 317 321 325 321 317 314 314 321 327 337 338 347 359 354 359 358 260 262 251 231 258 214 205 212
20 27 20 15 5 358 354 347 339 336 332 329 329 325 321 313 308 309 307 307 309 311 313 314 309 309 312 314 313 320 327 330 337 332 320 277 269 266 251 233 239 240 231
17 14 16 14 9 5 359 351 345 341 338 334 329 324 321 317 310 304 301 301 302 300 299 301 300 298 299 299 301 302 306 311 315 312 309 299 285 271 258 246 238 225 226
1 5 8 6 2 358 352 349 345 338 336 335 332 329 320 316 313 308 302 297 297 295 294 293 293 292 290 290 289 288 290 293 295 298 295 292 286 275 266 258 248 243 240
9 359 356 355 350 346 343 338 337 334 331 328 326 323 322 313 310 310 310 302 295 293 293 293 291 288 288 288 285 284 284 283 282 283 283 281 279 275 267 259 253 249 243
10 2 354 343 338 335 329 326 332 324 319 318 319 318 319 319 310 308 310 308 300 293 292 290 289 286 286 286 286 285 285 282 281 279 275 270 266 264 260 255 251 245 241
357 351 341 341 333 331 334 333 329 326 324 324 323 321 319 318 318 308 306 306 303 297 291 288 287 287 285 285 286 285 283 281 278 275 272 270 266 262 256 251 246 243 243
350 335 331 338 337 337 333 331 330 329 328 324 322 318 318 314 313 309 304 304 302 297 291 287 286 286 284 283 284 284 283 281 278 275 272 268 263 261 260 256 250 246 242
336 332 333 334 336 333 331 331 333 335 332 327 325 322 321 319 318 313 308 308 302 296 293 287 283 283 282 283 283 281 279 278 277 275 272 268 264 260 256 252 250 248 246
331 329 328 332 330 329 327 329 331 331 328 322 320 321 322 319 319 316 314 310 306 300 293 287 282 278 278 280 279 278 278 275 275 274 273 271 267 263 260 256 253 248 247
332 332 328 326 324 326 327 325 327 330 331 331 330 330 326 321 318 315 311 309 308 305 297 290 286 281 277 277 276 275 275 272 270 270 268 267 265 262 259 257 254 256 257
328 324 319 320 323 327 327 325 331 334 336 338 339 339 337 332 326 322 320 318 313 306 302 294 287 284 277 274 273 274 272 268 267 264 263 262 258 256 254 251 250 248 251
320 320 315 316 323 330 332 335 342 348 351 353 354 352 349 343 338 331 328 327 319 309 302 300 292 287 282 276 273 271 270 269 265 264 260 259 257 256 252 249 247 248 252
322 318 317 321 333 340 340 343 346 348 349 352 353 354 352 350 347 343 338 331 327 321 311 303 298 292 286 279 270 268 268 267 265 260 257 255 254 251 252 250 247 245 245
315 314 319 330 342 345 342 342 341 340 340 340 341 342 347 351 352 345 344 340 334 328 323 312 304 298 294 290 278 270 268 269 268 264 258 253 250 248 244 251 247 244 242
310 314 324 330 344 350 347 343 342 337 333 333 333 334 336 339 342 344 346 343 340 334 327 319 313 306 300 294 287 275 270 271 267 266 262 258 251 248 243 242 245 243 239
300 310 327 336 343 347 346 343 341 335 332 332 330 328 327 327 331 334 337 339 341 336 330 323 315 310 307 302 296 284 267 263 267 266 260 254 249 245 242 239 236 237 241
302 316 323 328 327 331 333 337 337 333 333 331 331 331 330 329 328 326 328 329 333 334 330 325 318 312 306 300 295 280 278 255 257 257 254 248 245 243 247 246 239 244 246
305 319 322 321 320 321 325 331 334 334 331 329 331 333 332 330 327 325 323 320 321 325 324 323 318 312 305 302 296 288 283 261 249 251 246 239 241 239 241 245 241 247 242
305 310 310 313 314 319 321 325 332 332 328 326 328 330 330 330 330 327 321 317 314 312 312 316 315 310 302 296 288 283 284 283 251 230 239 237 239 242 240 240 244 244 241
Height
1522 1523 1524 1524 1523 1523 1521 1520 1518 1516 1514 1512 1509 1507 1504 1502 1499 1496 1494 1491 1489 1487 1484 1482 1479 1476 1472 1469 1467 1465 1461 1458 1458 1456 1456 1456 1455 1453 1454 1458 1461 1462 1464
1522 1523 1523 1523 1522 1521 1520 1518 1517 1514 1512 1510 1507 1504 1502 1500 1497 1494 1492 1490 1487 1486 1484 1481 1477 1474 1470 1468 1465 1462 1459 1456 1455 1454 1455 1452 1453 1453 1453 1455 1458 1459 1460
1521 1521 1521 1521 1520 1520 1518 1517 1515 1513 1510 1508 1506 1504 1501 1499 1496 1493 1490 1488 1486 1484 1482 1480 1476 1473 1470 1466 1464 1461 1458 1454 1452 1453 1454 1452 1450 1453 1454 1453 1455 1458 1457
1521 1522 1521 1521 1520 1518 1516 1515 1513 1511 1508 1506 1504 1501 1499 1496 1493 1490 1488 1486 1484 1482 1480 1478 1475 1472 1469 1466 1463 1461 1457 1454 1451 1450 1450 1451 1451 1453 1454 1453 1453 1457 1455
1522 1522 1521 1520 1519 1517 1514 1512 1510 1507 1505 1503 1501 1499 1496 1494 1491 1488 1486 1484 1482 1480 1478 1476 1474 1472 1469 1466 1463 1460 1457 1454 1451 1449 1449 1450 1449 1450 1452 1451 1455 1457 1458
1522 1521 1520 1519 1517 1514 1512 1509 1507 1504 1502 1500 1498 1495 1493 1491 1488 1486 1484 1482 1480 1478 1476 1474 1472 1470 1468 1465 1462 1460 1457 1455 1452 1450 1449 1449 1449 1450 1450 1451 1453 1454 1456
1522 1521 1519 1516 1514 1512 1509 1507 1504 1502 1500 1497 1495 1492 1490 1488 1485 1483 1481 1479 1477 1476 1473 1472 1470 1468 1466 1464 1462 1459 1457 1455 1452 1451 1449 1449 1449 1449 1449 1450 1451 1452 1453
1522 1520 1518 1515 1512 1510 1508 1506 1503 1500 1497 1495 1492 1490 1487 1484 1482 1480 1478 1475 1474 1473 1471 1470 1467 1466 1464 1462 1460 1458 1456 1455 1453 1452 1450 1449 1449 1449 1448 1449 1450 1450 1450
1521 1520 1518 1515 1512 1510 1507 1504 1501 1499 1496 1493 1489 1487 1484 1480 1477 1475 1473 1471 1470 1469 1467 1466 1464 1462 1461 1459 1457 1456 1455 1454 1452 1451 1450 1449 1447 1447 1446 1447 1447 1447 1447
1520 1519 1516 1514 1512 1510 1507 1504 1500 1496 1493 1489 1486 1482 1479 1476 1473 1470 1468 1466 1465 1463 1462 1461 1460 1459 1457 1456 1454 1452 1451 1450 1450 1448 1448 1447 1446 1445 1444 1444 1444 1444 1445
1518 1517 1515 1513 1511 1508 1504 1500 1497 1493 1489 1485 1481 1478 1475 1472 1468 1465 1463 1461 1459 1458 1457 1456 1455 1454 1453 1452 1450 1448 1447 1445 1444 1443 1442 1442 1441 1441 1441 1440 1440 1440 1441
1517 1516 1514 1512 1508 1504 1501 1497 1493 1489 1485 1480 1475 1472 1469 1466 1463 1461 1459 1456 1453 1452 1451 1451 1449 1449 1448 1446 1445 1443 1442 1440 1439 1438 1437 1436 1435 1435 1435 1435 1435 1434 1435
1515 1513 1511 1509 1505 1501 1496 1492 1488 1483 1479 1474 1470 1466 1463 1461 1458 1455 1453 1450 1448 1446 1445 1444 1444 1443 1442 1441 1440 1438 1436 1435 1434 1433 1432 1432 1431 1431 1430 1430 1430 1430 1431
1513 1511 1508 1505 1501 1496 1492 1487 1483 1478 1473 1470 1466 1462 1458 1455 1452 1449 1446 1444 1441 1439 1438 1437 1437 1437 1436 1435 1434 1433 1432 1431 1430 1429 1428 1427 1426 1426 1426 1426 1427 1427 1426
1509 1507 1504 1500 1497 1492 1487 1483 1478 1473 1469 1465 1461 1457 1453 1449 1446 1442 1440 1437 1434 1432 1430 1429 1429 1429 1429 1429 1429 1428 1427 1426 1425 1424 1423 1423 1423 1422 1421 1421 1422 1422 1423
1506 1504 1501 1496 1493 1489 1483 1478 1473 1469 1465 1460 1456 1452 1447 1443 1440 1436 1433 1430 1428 1425 1424 1422 1422 1421 1420 1421 1421 1421 1421 1421 1420 1420 1420 1419 1419 1418 1418 1417 1417 1418 1418
1504 1500 1496 1492 1489 1485 1480 1473 1468 1464 1460 1456 1452 1447 1442 1438 1434 1430 1426 1423 1420 1418 1416 1415 1415 1414 1414 1415 1414 1414 1413 1413 1413 1413 1413 1413 1414 1414 1414 1414 1413 1413 1413
1501 1497 1493 1489 1485 1480 1476 1470 1466 1461 1456 1451 1446 1442 1437 1432 1428 1424 1420 1416 1413 1410 1409 1407 1406 1406 1406 1407 1408 1407 1407 1406 1406 1406 1406 1406 1407 1408 1409 1409 1409 1409 1410
1496 1492 1488 1485 1480 1476 1472 1467 1463 1458 1453 1448 1443 1439 1434 1428 1423 1418 1414 1410 1406 1403 1401 1400 1398 1398 1398 1399 1401 1401 1400 1400 1400 1400 1400 1401 1401 1402 1403 1403 1403 1404 1404
1491 1487 1484 1480 1476 1472 1468 1464 1460 1455 1450 1446 1442 1437 1432 1426 1420 1415 1410 1405 1401 1397 1394 1392 1391 1390 1390 1391 1392 1393 1393 1392 1393 1394 1394 1393 1394 1395 1397 1397 1398 1397 1398
1486 1483 1480 1477 1473 1469 1464 1460 1455 1451 1447 1443 1439 1434 1429 1424 1419 1413 1408 1403 1398 1393 1390 1386 1384 1383 1383 1384 1385 1386 1385 1386 1387 1387 1387 1388 1389 1389 1390 1390 1393 1392 1394
1480 1479 1476 1473 1470 1466 1461 1456 1452 1448 1443 1439 1435 1430 1426 1422 1417 1411 1405 1400 1395 1390 1386 1382 1379 1377 1376 1376 1377 1379 1379 1379 1380 1380 1381 1383 1384 1384 1385 1385 1386 1386 1387
1476 1474 1471 1468 1465 1461 1457 1453 1449 1443 1438 1433 1429 1424 1420 1416 1412 1407 1401 1395 1391 1386 1381 1377 1373 1371 1370 1370 1371 1371 1372 1373 1373 1372 1374 1376 1378 1378 1378 1380 1381 1381 1382
1471 1469 1466 1463 1459 1456 1452 1449 1445 1439 1433 1428 1423 1419 1414 1409 1405 1401 1397 1392 1387 1381 1376 1372 1369 1365 1362 1362 1362 1362 1361 1364 1366 1367 1367 1369 1371 1372 1372 1374 1375 1375 1377
1465 1464 1461 1457 1454 1450 1446 1443 1439 1434 1428 1423 1418 1413 1408 1404 1399 1395 1391 1387 1383 1379 1374 1368 1364 1359 1355 1354 1355 1356 1355 1354 1357 1360 1361 1362 1362 1364 1365 1367 1368 1369 1371
1460 1457 1455 1452 1448 1444 1440 1436 1433 1428 1422 1416 1411 1407 1402 1398 1394 1388 1381 1381 1377 1373 1370 1365 1360 1354 1349 1349 1346 1346 1348 1347 1349 1350 1350 1352 1353 1355 1358 1360 1361 1363 1364